+ View the NASA Portal
+ Center for Near-Earth Object Studies
IMPORTANT:
The SSD Announcement email list is now available. Major changes are coming in the near future, including possible hostname and/or URL changes. To be notified of such changes, subscribe to this email list.
Please visit
this page
for more details.
Don't show this message again
JPL Small-Body Database Browser
Search:
[
help
]
266766 (2009 SA134)
Classification:
Main-belt Asteroid
SPK-ID:
2266766
[
Ephemeris
|
Orbit Diagram
|
Orbital Elements
|
Mission Design
|
Physical Parameters
|
Discovery Circumstances
|
Close-Approach Data
]
[ show orbit diagram ]
Orbital Elements at Epoch 2458600.5 (2019-Apr-27.0) TDB
Reference:
JPL 10
(heliocentric ecliptic J2000)
Element
Value
Uncertainty (1-sigma)
Units
e
.1049095827110857
8.597e-08
a
2.726717197176891
3.2394e-08
au
q
2.440658433849922
2.347e-07
au
i
3.834775052320326
7.4601e-06
deg
node
127.6703419608156
0.00012581
deg
peri
233.9173337177166
0.0001289
deg
M
61.13601730840045
3.142e-05
deg
t
p
2458321.211396023868
(2018-Jul-21.71139602)
0.00014223
TDB
period
1644.593512269769
4.50
2.9308e-05
8.024e-08
d
yr
n
.2188990758592679
3.9009e-09
deg/d
Q
3.01277596050386
3.5793e-08
au
Orbit Determination Parameters
# obs. used (total)
149
data-arc span
6591 days (18.05 yr)
first obs. used
2000-10-01
last obs. used
2018-10-18
planetary ephem.
DE431
SB-pert. ephem.
SB431-N16
condition code
0
norm. resid. RMS
.62044
source
ORB
producer
Otto Matic
solution date
2018-Oct-31 04:21:33
Additional Information
Earth MOID
= 1.43892 au
Jupiter MOID
= 2.42107 au
T_jup
= 3.345
[ show covariance matrix ]
[
Ephemeris
|
Orbit Diagram
|
Orbital Elements
|
Mission Design
|
Physical Parameters
|
Discovery Circumstances
|
Close-Approach Data
]
Physical Parameter Table
Parameter
Symbol
Value
Units
Sigma
Reference
Notes
absolute magnitude
H
16.6
n/a
MPO454982
266766 (2009 SA134)
Discovered 2009-Sep-18 by Spacewatch at Kitt Peak
Reference:
20110218/Numbers.arc
Last Updated:
2011-02-22
[ show close-approach data ]
[
Ephemeris
|
Orbit Diagram
|
Orbital Elements
|
Mission Design
|
Physical Parameters
|
Discovery Circumstances
|
Close-Approach Data
]
2019-Dec-09 00:24 UT
(server date/time)
Site Manager:
Ryan S. Park
Webmaster
:
Alan B. Chamberlin